Pearl, MS

3:33 AM CDT on July 30, 2016 (GMT -0500)
Jackson-Evers International

Weather History for KJAN - November, 2013

Change the Weather History Date:

Tuesday, November 26, 2013

  Actual Average Record
Temperature  
Mean Temperature 41 °F 52 °F  
Max Temperature 45 °F 64 °F 84 °F (1965)
Min Temperature 37 °F 41 °F 21 °F (1900)
Degree Days  
Heating Degree Days 24 13  
Month to date heating degree days 277 247  
Since 1 July heating degree days 359 354  
Cooling Degree Days 0 0  
Month to date cooling degree days 15 21  
Year to date cooling degree days 2347 2252  
Moisture  
Dew Point 40 °F    
Average Humidity 93    
Maximum Humidity 100    
Minimum Humidity 85    
Precipitation  
Precipitation 1.09 in 0.18 in 3.64 in (1948)
Month to date precipitation 6.63 4.01  
Year to date precipitation 59.76 48.24  
Sea Level Pressure  
Sea Level Pressure 29.95 in    
Wind  
Wind Speed 11 mph (NNW)    
Max Wind Speed 22 mph    
Max Gust Speed 28 mph    
Visibility 6 miles    
Events Rain    
T = Trace of Precipitation, MM = Missing Value Source: NWS Daily Summary

Daily Weather History Graph

Daily Weather History Graph

Search for Another Location

Airport or City:

Trip Planner

Search our weather history database for the weather conditions in past years. The results will help you decide how hot, cold, wet, or windy it might be!

Date:

Astronomy

Nov. 26, 2013 Rise Set
Actual Time 6:39 AM CST 4:55 PM CST
Civil Twilight 6:13 AM CST 5:22 PM CST
Nautical Twilight 5:42 AM CST 5:52 PM CST
Astronomical Twilight 5:13 AM CST 6:21 PM CST
Moon 12:05 AM CST (11/26) 12:42 PM CST (11/26)
Length of Visible Light 11h 09m
Length of Day
10h 16m
Last Quarter, 41% of the Moon is Illuminated
Nov 26
Last Quarter
Dec 2
New
Dec 9
First Quarter
Dec 17
Full
Dec 25
Last Quarter

Hourly Weather History & Observations

Time (CST) Temp. Windchill Dew Point Humidity Pressure Visibility Wind Dir Wind Speed Gust Speed Precip Events Conditions
12:06 AM 42.8 °F 38.6 °F 42.8 °F 100% 30.01 in 3.0 mi North 6.9 mph - 0.11 in Rain Rain
12:15 AM 42.8 °F 38.0 °F 42.8 °F 100% 30.00 in 4.0 mi North 8.1 mph - 0.14 in Rain Heavy Rain
12:27 AM 42.8 °F 39.3 °F 42.8 °F 100% 30.01 in 4.0 mi North 5.8 mph - 0.21 in Rain Rain
12:54 AM 44.1 °F 39.0 °F 42.1 °F 93% 29.99 in 4.0 mi NNE 9.2 mph - 0.32 in Rain Rain
1:13 AM 42.8 °F 36.2 °F 42.8 °F 100% 29.98 in 8.0 mi North 12.7 mph - 0.02 in Rain Light Rain
1:54 AM 43.0 °F 37.7 °F 42.1 °F 97% 29.98 in 6.0 mi North 9.2 mph - 0.11 in Rain Rain
2:20 AM 42.8 °F 37.5 °F 42.8 °F 100% 29.94 in 6.0 mi North 9.2 mph - 0.08 in Rain Rain
2:54 AM 43.0 °F 37.7 °F 41.0 °F 93% 29.92 in 10.0 mi NE 9.2 mph - 0.16 in Rain Light Rain
3:54 AM 44.1 °F 40.1 °F 42.1 °F 93% 29.90 in 6.0 mi North 6.9 mph - 0.12 in Rain Rain
4:36 AM 44.6 °F 41.4 °F 42.8 °F 93% 29.86 in 9.0 mi NE 5.8 mph - 0.13 in Rain Light Rain
4:54 AM 44.1 °F 39.5 °F 42.1 °F 93% 29.83 in 9.0 mi ENE 8.1 mph - 0.15 in Rain Rain
5:33 AM 44.6 °F 41.4 °F 42.8 °F 93% 29.85 in 10.0 mi NNW 5.8 mph - 0.04 in Rain Light Rain
5:54 AM 45.0 °F 39.7 °F 43.0 °F 93% 29.83 in 10.0 mi NNE 10.4 mph - 0.05 in Rain Light Rain
6:33 AM 44.6 °F 39.2 °F 42.8 °F 93% 29.91 in 10.0 mi NW 10.4 mph - 0.01 in Rain Light Rain
6:40 AM 44.6 °F 38.1 °F 42.8 °F 93% 29.92 in 10.0 mi NW 13.8 mph - 0.01 in Rain Light Rain
6:54 AM 44.1 °F 38.6 °F 43.0 °F 96% 29.91 in 10.0 mi NW 10.4 mph - 0.01 in Rain Light Rain
7:09 AM 42.8 °F 35.1 °F 41.0 °F 93% 29.91 in 0.5 mi NNW 16.1 mph 24.2 mph 0.00 in Rain Light Rain
7:54 AM 41.0 °F 32.2 °F 39.9 °F 96% 29.92 in 0.5 mi NNW 18.4 mph - 0.00 in   Overcast
8:54 AM 41.0 °F 33.9 °F 39.9 °F 96% 29.94 in 0.8 mi North 12.7 mph - 0.00 in   Overcast
9:09 AM 42.8 °F 37.5 °F 39.2 °F 87% 29.96 in 1.0 mi NNW 9.2 mph - N/A   Overcast
9:42 AM 41.0 °F 35.8 °F 39.2 °F 93% 29.95 in 1.0 mi North 8.1 mph - N/A   Overcast
9:54 AM 42.1 °F 36.1 °F 39.9 °F 92% 29.96 in 1.0 mi NNW 10.4 mph - 0.00 in Rain Light Rain
10:54 AM 42.1 °F 36.6 °F 41.0 °F 96% 29.95 in 1.0 mi NNW 9.2 mph - 0.02 in Rain Light Rain
11:12 AM 42.8 °F 36.6 °F 41.0 °F 93% 29.93 in 7.0 mi NW 11.5 mph - 0.00 in   Overcast
11:32 AM 42.8 °F 35.4 °F 39.2 °F 87% 29.89 in 5.0 mi NNW 15.0 mph 21.9 mph 0.00 in Rain Light Rain
11:54 AM 42.1 °F 38.4 °F 41.0 °F 96% 29.89 in 7.0 mi NNW 5.8 mph 23.0 mph 0.00 in   Overcast
12:54 PM 41.0 °F 34.7 °F 39.9 °F 96% 29.88 in 8.0 mi NNW 10.4 mph 19.6 mph N/A   Overcast
1:54 PM 41.0 °F 34.7 °F 39.9 °F 96% 29.88 in 7.0 mi NNW 10.4 mph - 0.00 in   Overcast
2:54 PM 42.1 °F 36.6 °F 39.9 °F 92% 29.90 in 7.0 mi North 9.2 mph - N/A   Overcast
3:54 PM 42.1 °F 35.7 °F 39.9 °F 92% 29.91 in 7.0 mi NNW 11.5 mph - N/A   Overcast
4:54 PM 41.0 °F 33.5 °F 39.0 °F 93% 29.93 in 6.0 mi WNW 13.8 mph 18.4 mph N/A   Overcast
5:54 PM 41.0 °F 33.9 °F 37.9 °F 89% 29.97 in 5.0 mi NW 12.7 mph 19.6 mph 0.00 in   Overcast
6:31 PM 41.0 °F 32.5 °F 37.4 °F 87% 29.98 in 5.0 mi NNW 17.3 mph 26.5 mph 0.00 in   Overcast
6:54 PM 41.0 °F 33.1 °F 37.0 °F 86% 29.99 in 5.0 mi NNW 15.0 mph - 0.00 in Rain Light Rain
7:54 PM 39.9 °F 32.9 °F 37.9 °F 93% 30.01 in 5.0 mi NNW 11.5 mph - 0.04 in Rain Light Rain
8:29 PM 39.2 °F 31.2 °F 37.4 °F 93% 30.02 in 8.0 mi NNW 13.8 mph 20.7 mph 0.01 in Rain Light Rain
8:54 PM 37.9 °F 30.5 °F 36.0 °F 93% 30.02 in 6.0 mi NNW 11.5 mph 21.9 mph 0.03 in Rain Heavy Rain
9:18 PM 37.4 °F 29.8 °F 35.6 °F 93% 30.04 in 5.0 mi NNW 11.5 mph - 0.09 in Rain Rain
9:54 PM 39.0 °F 31.8 °F 36.0 °F 89% 30.05 in 10.0 mi NW 11.5 mph 25.3 mph 0.11 in   Overcast
10:54 PM 39.0 °F 32.3 °F 35.1 °F 86% 30.07 in 10.0 mi NW 10.4 mph - N/A   Partly Cloudy
11:54 PM 37.9 °F 31.5 °F 33.1 °F 83% 30.08 in 10.0 mi NNW 9.2 mph - N/A   Clear